Home   Weather   Khartoum   Past weeks

Flag for Sudan Past Weather in Khartoum, Sudan — Yesterday and Last 2 Weeks

91 °F


Feels Like: 88 °F
Forecast: 78 / 101 °F
Wind: 12 mph from Northwest

Location: Khartoum Airport

Current Time: Oct 23, 2016 at 12:50:03 PM

Latest Report: Oct 23, 2016 at 12:30 PM

Visibility: 10 mi

Pressure: 29.89 "Hg

Humidity: 23%

Dew Point: 48 °F

Location of KhartoumLocation

Past Weather in Khartoum — Graph


Khartoum Temperature Yesterday

Maximum temperature yesterday: 100 °F (at 4:00 PM)
Minimum temperature yesterday: 81 °F (at 6:00 AM)
Average temperature yesterday: 91 °F

High & Low Weather Summary for the Past Weeks

High106 °F (Oct 9, 4:00 PM)58% (Oct 11, 6:30 AM)29.95 "Hg (Oct 11, 6:30 AM)
Low81 °F (Oct 11, 6:30 AM)8% (Oct 10, 3:00 PM)29.68 "Hg (Oct 20, 3:30 PM)
Average93 °F20%29.81 "Hg
* Reported Oct 8 12:00 PM — Oct 23 12:00 PM, Khartoum, Weather by CustomWeather, © 2016

Note: Actual official high and low records may vary slightly from our data, if they occured in-between our weather recording intervals... More about our weather records


Khartoum Weather History for the Previous 24 Hours

Scroll right to see more
Time TempWeatherWind HumidityBarometerVisibility
12:00 PM
Sun, Oct 23
91 °FSunny.12 mph23%29.92 "Hg10 mi
11:30 AM90 °FSunny.13 mph22%29.92 "Hg10 mi
11:00 AM90 °FSunny.9 mph22%29.95 "Hg10 mi
10:30 AM88 °FSunny.12 mph24%29.95 "Hg10 mi
10:00 AM88 °FSunny.14 mph24%29.95 "Hg10 mi
9:30 AM84 °FSunny.8 mph25%29.95 "Hg10 mi
9:00 AM84 °FSunny.9 mph25%29.95 "Hg10 mi
8:30 AM82 °FSunny.10 mph28%29.95 "Hg10 mi
8:00 AM82 °FSunny.9 mph28%29.92 "Hg10 mi
7:30 AM81 °FSunny.9 mph28%29.92 "Hg10 mi
7:00 AM81 °FSunny.15 mph28%29.92 "Hg10 mi
6:00 AM81 °FClear.12 mph28%29.89 "Hg10 mi
5:30 AM81 °FClear.13 mph28%29.89 "Hg10 mi
5:00 AM82 °FClear.14 mph26%29.89 "Hg10 mi
1:00 AM88 °FClear.12 mph18%29.89 "Hg10 mi
12:30 AM90 °FClear.12 mph26%29.92 "Hg10 mi
12:00 AM90 °FClear.13 mph17%29.92 "Hg10 mi
11:30 PM
Sat, Oct 22
90 °FClear.12 mph18%29.92 "Hg10 mi
11:00 PM90 °FClear.13 mph18%29.92 "Hg10 mi
10:30 PM91 °FClear.10 mph18%29.89 "Hg10 mi
10:00 PM91 °FClear.9 mph18%29.89 "Hg10 mi
9:30 PM93 °FClear.8 mph16%29.89 "Hg10 mi
9:00 PM93 °FClear.6 mph16%29.89 "Hg10 mi
8:30 PM95 °FClear.7 mph18%29.89 "Hg10 mi
8:00 PM95 °FClear.7 mph22%29.86 "Hg10 mi
7:30 PM95 °FExtremely hot.7 mph22%29.86 "Hg5 mi
7:00 PM97 °FClear.2 mph18%29.83 "Hg10 mi
6:30 PM97 °FClear.No wind17%29.83 "Hg10 mi
6:00 PM99 °FSunny.No wind17%29.83 "Hg10 mi
5:30 PM99 °FSunny.5 mph17%29.83 "Hg10 mi
5:00 PM99 °FSunny.5 mph17%29.83 "Hg10 mi
4:30 PM100 °FSunny.3 mph15%29.83 "Hg10 mi
4:00 PM100 °FSunny.5 mph15%29.83 "Hg10 mi
3:00 PM99 °FSunny.3 mph15%29.83 "Hg10 mi
2:30 PM99 °FSunny.3 mph16%29.83 "Hg10 mi
2:00 PM97 °FSunny.5 mph17%29.86 "Hg10 mi
1:30 PM97 °FSunny.6 mph17%29.86 "Hg10 mi
1:00 PM95 °FSunny.6 mph18%29.89 "Hg10 mi
12:30 PM93 °FSunny.8 mph19%29.89 "Hg10 mi
12:00 PM93 °FSunny.12 mph19%29.89 "Hg10 mi
Weather by CustomWeather, © 2016

See weather overviewHow to use our weather pages